Cotulla, TX

4:15 PM CST on November 11, 2019 (GMT -0600)
Cotulla-La Salle County

Weather History for KCOT - August, 2019

Change the Weather History Date:

Thursday, August 8, 2019

  Actual Average Record
Temperature  
Mean Temperature 93 °F -  
Max Temperature 108 °F 97 °F 108 °F (2019)
Min Temperature 79 °F 73 °F 70 °F (2017)
Cooling Degree Days 28    
Growing Degree Days 43 (Base 50)    
Moisture  
Dew Point 69 °F    
Average Humidity 54    
Maximum Humidity 85    
Minimum Humidity 18    
Precipitation  
Precipitation 0.00 in - - ()
Sea Level Pressure  
Sea Level Pressure 29.84 in    
Wind  
Wind Speed 12 mph (SE)    
Max Wind Speed 24 mph    
Max Gust Speed 32 mph    
Visibility 10 miles    
Events      
Averages and records for this station are not official NWS values.
T = Trace of Precipitation, MM = Missing Value Source: NWS Daily Summary

Daily Weather History Graph

Daily Weather History Graph

Search for Another Location

Airport or City:

Astronomy

Aug. 08, 2019 Rise Set
Actual Time 7:02 AM CDT 8:22 PM CDT
Civil Twilight 6:37 AM CDT 8:47 PM CDT
Nautical Twilight 6:07 AM CDT 9:17 PM CDT
Astronomical Twilight 5:36 AM CDT 9:47 PM CDT
Moon 2:59 PM CDT (8/8) 1:22 AM CDT (8/8)
Length of Visible Light 14h 09m
Length of Day
13h 19m
First Quarter, 60% of the Moon is Illuminated
Aug 8
First Quarter
Aug 15
Full
Aug 23
Last Quarter
Aug 30
New
Sep 5
First Quarter

Hourly Weather History & Observations

Time (CDT) Temp. Heat Index Dew Point Humidity Pressure Visibility Wind Dir Wind Speed Gust Speed Precip Events Conditions
12:53 AM 84.9 °F 91.4 °F 73.0 °F 67% 29.87 in 10.0 mi SE 12.7 mph - N/A   Clear
1:53 AM 84.0 °F 89.6 °F 72.0 °F 67% 29.88 in 10.0 mi SSE 13.8 mph - N/A   Clear
2:53 AM 82.9 °F 88.0 °F 72.0 °F 69% 29.87 in 10.0 mi SSE 10.4 mph - N/A   Clear
3:53 AM 81.0 °F 85.2 °F 72.0 °F 74% 29.86 in 10.0 mi SSE 8.1 mph - N/A   Clear
4:53 AM 80.1 °F 83.8 °F 72.0 °F 76% 29.86 in 10.0 mi SE 6.9 mph - N/A   Clear
5:53 AM 79.0 °F - 73.9 °F 84% 29.86 in 10.0 mi ESE 6.9 mph - N/A   Clear
6:53 AM 79.0 °F - 73.9 °F 84% 29.86 in 10.0 mi ESE 5.8 mph - N/A   Clear
7:41 AM 80.1 °F 85.1 °F 75.0 °F 85% 29.89 in 9.0 mi SE 9.2 mph - N/A   Mostly Cloudy
7:53 AM 80.1 °F 85.1 °F 75.0 °F 85% 29.87 in 9.0 mi SE 10.4 mph - N/A   Mostly Cloudy
8:53 AM 82.9 °F 90.8 °F 75.9 °F 79% 29.89 in 10.0 mi SE 12.7 mph - N/A   Mostly Cloudy
9:53 AM 86.0 °F 95.1 °F 75.0 °F 70% 29.90 in 10.0 mi South 10.4 mph 17.3 mph N/A   Mostly Cloudy
10:28 AM 87.1 °F 95.4 °F 73.9 °F 65% 29.93 in 10.0 mi SSE 10.4 mph - N/A   Scattered Clouds
10:53 AM 89.1 °F 98.0 °F 73.9 °F 61% 29.90 in 10.0 mi Variable 4.6 mph - N/A   Partly Cloudy
11:53 AM 95.0 °F 102.5 °F 71.1 °F 46% 29.89 in 10.0 mi SSW 9.2 mph - N/A   Clear
12:53 PM 97.0 °F 102.8 °F 69.1 °F 40% 29.88 in 10.0 mi North - - N/A   Partly Cloudy
1:53 PM 100.0 °F 103.6 °F 64.9 °F 32% 29.85 in 10.0 mi Variable 6.9 mph 18.4 mph N/A   Clear
2:53 PM 104.0 °F 106.0 °F 62.1 °F 25% 29.81 in 10.0 mi SSE 17.3 mph 20.7 mph N/A   Clear
3:53 PM 106.0 °F 105.1 °F 55.9 °F 19% 29.79 in 10.0 mi SSE 12.7 mph - N/A   Clear
4:53 PM 107.1 °F 106.0 °F 55.0 °F 18% 29.76 in 10.0 mi ESE 10.4 mph 24.2 mph N/A   Clear
5:53 PM 107.1 °F 106.0 °F 55.0 °F 18% 29.75 in 10.0 mi SE 13.8 mph 21.9 mph N/A   Clear
6:53 PM 105.1 °F 103.8 °F 55.0 °F 19% 29.74 in 10.0 mi South 11.5 mph 21.9 mph N/A   Clear
7:53 PM 102.9 °F 101.4 °F 55.0 °F 20% 29.74 in 10.0 mi SSE 13.8 mph - N/A   Partly Cloudy
8:53 PM 96.1 °F 103.5 °F 71.1 °F 44% 29.76 in 10.0 mi ESE 23.0 mph 32.2 mph N/A   Partly Cloudy
9:53 PM 93.0 °F 100.7 °F 72.0 °F 50% 29.79 in 10.0 mi SE 24.2 mph 32.2 mph N/A   Clear
10:53 PM 90.0 °F 97.9 °F 73.0 °F 57% 29.82 in 10.0 mi SE 20.7 mph 26.5 mph N/A   Clear
11:53 PM 88.0 °F 95.6 °F 73.0 °F 61% 29.83 in 10.0 mi SE 18.4 mph 27.6 mph N/A   Clear